Location: Barcelona
(41.3830°N, 2.1830°E)
Time: 07:21:39
(UTC+01:00)

ISS - Pass Details

Date: 24 November 2020
Orbit: 418 x 420 km, 51.6° (Epoch: 04 December)

Event Time Altitude Azimuth Distance (km) Brightness Sun altitude
Rises 19:42:41 0° 282° (WNW) 2,360 1.2 -25.4°
Reaches altitude 10° 19:45:18 10° 303° (WNW) 1,497 -0.3 -25.9°
Enters shadow 19:46:23 15° 320° (NW) 1,246 -1.0 -26.1°
